Weather Roundup
Issued by NWS Springfield, MO

Home | Current Version | Previous Version | Text Only | Print | Product List | Glossary On
Versions: 1 2 3 4 5 6 7 8 9 10 11 12 13 14 15 16 17 18 19 20 21 22 23 24 25 26 27 28 29 30 31 32 33 34 35 36 37 38 39 40 41 42 43 44 45 46 47 48 49 50
000
NZUS99 KSGF 242059
HRRSGF

HOURLY WEATHER
NATIONAL WEATHER SERVICE SPRINGFIELD MO
400 PM CDT THU JUL 24 2014

......SGF CWA......

CITY           SKY/WX    TMP DP  RH WIND       PRES   REMARKS
SPRINGFIELD    SUNNY     83  56  39 E12       30.09F
JOPLIN         SUNNY     87  62  43 VRB7      30.05F
WEST PLAINS    SUNNY     81  55  40 VRB3      30.10S
ROLLA          MOSUNNY   81  50  33 N5        30.07F
OSAGE BEACH    MOSUNNY   82  54  36 CALM      30.08F
BRANSON        MOSUNNY   90  59  35 SE6       30.10F

......SURROUNDING SGF CWA......

CITY           SKY/WX    TMP DP  RH WIND       PRES   REMARKS
CHANUTE        SUNNY     85  65  51 SE8       30.05F
PARSONS        SUNNY     87  67  51 VRB6      30.05F HX  90
COFFEYVILLE    SUNNY     88  66  48 SE9       30.03F HX  90
EMPORIA        SUNNY     86  64  47 SE10      30.03F
SILOAM SPRINGS MOSUNNY   84  66  54 S8        30.08F
HARRISON AR    SUNNY     81  62  52 VRB5      30.09F
NEAR YELLVILLE SUNNY     82  61  47 N3        30.08S

......KANSAS AND MISSOURI......

CITY           SKY/WX    TMP DP  RH WIND       PRES   REMARKS
KANSAS CTY INT MOSUNNY   82  60  47 SE12      30.04F
DOWNTOWN KC    SUNNY     84  59  42 S12G20    30.03F
COLUMBIA       MOSUNNY   81  56  42 E9        30.09F
SEDALIA        SUNNY     82  57  42 SE6       30.08F
ST JOSEPH      SUNNY     81  60  48 S16       30.03F
ST LOUIS       PTSUNNY   81  51  35 N9G16     30.09F
SPIRIT OF STL  MOSUNNY   80  51  36 NE8       30.07F
KIRKSVILLE     PTSUNNY   78  57  48 SE9       30.09F
WICHITA        MOSUNNY   89  69  51 SE16      30.01F HX  93
TOPEKA         SUNNY     88  60  38 SE16      30.02F
OLATHE         SUNNY     82  57  42 SE14      30.05F

......TENNESSEE......

CITY           SKY/WX    TMP DP  RH WIND       PRES   REMARKS
MEMPHIS        SUNNY     83  57  41 N13       30.04R
NASHVILLE      MOSUNNY   85  62  46 VRB6      29.99F

......ARKANSAS.......

CITY           SKY/WX    TMP DP  RH WIND       PRES   REMARKS
FAYETTEVILLE   PTSUNNY   82  68  62 VRB3      30.07F
FT SMITH       MOSUNNY   86  71  60 E6        30.03F HX  91
LITTLE ROCK    PTSUNNY   84  65  52 E6        30.04F

......OKLAHOMA.......

CITY           SKY/WX    TMP DP  RH WIND       PRES   REMARKS
TULSA          MOSUNNY   90  71  53 SE9       30.00F HX  96
PONCA CITY     SUNNY     90  70  51 S8        30.00F HX  95
MCALESTER      SUNNY     91  68  46 CALM      30.02F HX  95
OKLAHOMA CITY  MOSUNNY   93  71  48 SE6       30.02F HX 100

......IOWA............

CITY           SKY/WX    TMP DP  RH WIND       PRES   REMARKS
DES MOINES     CLOUDY    77  58  51 SW9       30.11R
QUAD CITIES    PTSUNNY   77  56  48 S7        30.08F

......ILLINOIS........

CITY           SKY/WX    TMP DP  RH WIND       PRES   REMARKS
QUINCY         PTSUNNY   76  55  48 E9        30.07F
CHICAGO        MOSUNNY   74  43  32 E9        30.10F



USA.gov is the U.S. government's official web portal to all federal, state and local government web resources and services.